Weather History for Westfield, MA

Change the Weather History Date:

Thursday, November 21, 2013

  Actual Average Record
Temperature  
Mean Temperature 32 °F -  
Max Temperature 46 °F 45 °F 62 °F (2003)
Min Temperature 18 °F 28 °F 18 °F (2008)
Degree Days  
Heating Degree Days 33    
Moisture  
Dew Point 21 °F    
Average Humidity 64    
Maximum Humidity 85    
Minimum Humidity 35    
Precipitation  
Precipitation 0.00 in - - ()
Sea Level Pressure  
Sea Level Pressure 30.56 in    
Wind  
Wind Speed 1 mph (South)    
Max Wind Speed 10 mph    
Max Gust Speed -    
Visibility 10 miles    
Events      
Averages and records for this station are not official NWS values.
T = Trace of Precipitation, MM = Missing Value Source: NWS Daily Summary

Daily Weather History Graph

Daily Weather History Graph

Search for Another Location

Airport:

Trip Planner

Search our weather history database for the weather conditions in past years. The results will help you decide how hot, cold, wet, or windy it might be!

Date:

Astronomy

Nov. 21, 2013 Rise Set
Actual Time 6:48 AM EST 4:24 PM EST
Civil Twilight 6:18 AM EST 4:55 PM EST
Nautical Twilight 5:43 AM EST 5:29 PM EST
Astronomical Twilight 5:10 AM EST 6:02 PM EST
Moon 7:59 PM EST (11/21) 9:52 AM EST (11/21)
Length of Visible Light 10h 37m
Length of Day
9h 35m
Waning Gibbous, 85% of the Moon is Illuminated
Nov 21
Waning Gibbous
Nov 25
Last Quarter
Dec 2
New
Dec 9
First Quarter
Dec 17
Full

Hourly Weather History & Observations

Time (EST) Temp. Windchill Dew Point Humidity Pressure Visibility Wind Dir Wind Speed Gust Speed Precip Events Conditions
12:53 AM 19.9 °F - 16.0 °F 85% 30.65 in 9.0 mi Calm Calm - N/A   Clear
1:53 AM 19.0 °F - 14.0 °F 81% 30.67 in 10.0 mi Calm Calm - N/A   Clear
2:53 AM 19.0 °F 13.9 °F 14.0 °F 81% 30.65 in 10.0 mi NNE 3.5 mph - N/A   Clear
3:53 AM 19.0 °F - 15.1 °F 85% 30.65 in 10.0 mi Calm Calm - N/A   Clear
4:53 AM 19.0 °F - 14.0 °F 81% 30.65 in 10.0 mi Calm Calm - N/A   Clear
5:53 AM 19.0 °F - 15.1 °F 85% 30.66 in 10.0 mi Calm Calm - N/A   Clear
6:53 AM 18.0 °F - 12.9 °F 81% 30.67 in 9.0 mi Calm Calm - N/A   Clear
7:53 AM 21.9 °F - 18.0 °F 85% 30.67 in 10.0 mi Calm Calm - N/A   Clear
8:53 AM 28.0 °F - 19.9 °F 72% 30.66 in 10.0 mi Calm Calm - N/A   Clear
9:53 AM 32.0 °F - 19.9 °F 61% 30.65 in 10.0 mi Calm Calm - N/A   Clear
10:53 AM 37.0 °F - 17.1 °F 44% 30.63 in 10.0 mi Calm Calm - N/A   Clear
11:53 AM 41.0 °F 37.1 °F 15.1 °F 35% 30.59 in 10.0 mi South 5.8 mph - N/A   Clear
12:53 PM 44.1 °F 40.1 °F 18.0 °F 35% 30.55 in 10.0 mi South 6.9 mph - N/A   Clear
1:53 PM 46.0 °F 41.0 °F 21.0 °F 37% 30.51 in 10.0 mi South 10.4 mph - N/A   Clear
2:53 PM 44.1 °F 40.8 °F 21.0 °F 40% 30.50 in 10.0 mi SSE 5.8 mph - N/A   Clear
3:53 PM 44.1 °F 41.5 °F 21.9 °F 42% 30.49 in 10.0 mi SSE 4.6 mph - N/A   Clear
4:53 PM 41.0 °F - 24.1 °F 51% 30.49 in 10.0 mi Calm Calm - N/A   Clear
5:53 PM 37.0 °F - 27.0 °F 67% 30.49 in 10.0 mi Calm Calm - N/A   Clear
6:53 PM 39.0 °F - 26.1 °F 60% 30.48 in 10.0 mi Calm Calm - N/A   Overcast
7:53 PM 37.9 °F - 30.0 °F 73% 30.47 in 10.0 mi Calm Calm - N/A   Overcast
8:53 PM 39.0 °F - 27.0 °F 62% 30.45 in 10.0 mi Calm Calm - N/A   Overcast
9:53 PM 39.9 °F 35.8 °F 28.9 °F 65% 30.45 in 10.0 mi SSW 5.8 mph - N/A   Overcast
10:53 PM 39.9 °F - 28.9 °F 65% 30.43 in 10.0 mi Calm Calm - N/A   Overcast
11:53 PM 39.0 °F 36.8 °F 30.0 °F 70% 30.40 in 10.0 mi South 3.5 mph - N/A   Overcast